Location: Newark
(45.8667°N, 9.7333°E)
Time: 23:44:21
(UTC+00:00)

Vanguard 3 - Pass Details

Date: 02 February 2020
Orbit: 508 x 3263 km, 33.3° (Epoch: 19 February)

Event Time Altitude Azimuth Distance (km) Brightness Sun altitude
Rises 12:32:50 0° 201° (SSW) 5,509 12.7 25.9°
Reaches altitude 10° 12:36:52 10° 190° (S) 4,898 13.0 25.7°
Maximum altitude 12:48:32 28° 139° (SE) 4,440 11.5 25.1°
Drops below altitude 10° 13:03:03 10° 91° (E) 6,201 11.5 24.2°
Sets 13:09:00 0° 82° (E) 7,205 11.7 23.7°
